Location: *
(2.5500°S, 65.9667°W)
Time: 12:06:28
(UTC+00:00)

Iridium 4 Rocket - Pass Details

Date: 26 October 2021
Orbit: 586 x 903 km, 86.9° (Epoch: 29 November)

Event Time Altitude Azimuth Distance (km) Brightness Sun altitude
Rises 22:23:48 0° 6° (N) 3,277 6.6 -3.3°
Reaches altitude 10° 22:26:06 10° 9° (N) 2,394 5.9 -3.9°
Maximum altitude 22:31:30 68° 92° (E) 922 3.7 -5.2°
Drops below altitude 10° 22:37:16 10° 173° (S) 2,556 6.3 -6.6°
Sets 22:39:47 0° 176° (S) 3,515 7.0 -7.2°
